When you browse on this site, cookies collect data to enhance your experience and personalize the content and advertising you see.
Visit our Privacy Policy to learn more. By continuing to use the site, you agree to this use of cookies and data.
  • In Deutschland
  • Länderverzeichnis
  • Für 7 Tage
  • Wassertemperatur
  • Wetterkarte
  • Widgets
  • user-avatar
    Anmelden

    Stündliche Wetter Woensdrecht

    Heute, 17 Februar, Montag

    Zeit Temperatur Niederschläge Wind Luftdruck Luftfeuchtigkeit
    00:00 +6°C° 0 mm 8 m/S 755 mmHg 71%
    01:00 +6°C° 0 mm 8 m/S 756 mmHg 70%
    02:00 +6°C° 0 mm 8 m/S 756 mmHg 69%
    03:00 +5°C° 0 mm 8 m/S 757 mmHg 68%
    04:00 +5°C° 0 mm 8 m/S 757 mmHg 70%
    05:00 +5°C° 0 mm 8 m/S 757 mmHg 72%
    06:00 +5°C° 0 mm 7 m/S 757 mmHg 80%
    07:00 +5°C° 0 mm 8 m/S 757 mmHg 77%
    08:00 +5°C° 0 mm 8 m/S 757 mmHg 74%
    09:00 +6°C° 0 mm 9 m/S 757 mmHg 72%
    10:00 +6°C° 0.3 mm 9 m/S 757 mmHg 71%
    11:00 +6°C° 0.3 mm 10 m/S 757 mmHg 71%
    12:00 +7°C° 0 mm 8 m/S 758 mmHg 71%
    13:00 +7°C° 0.3 mm 9 m/S 758 mmHg 67%
    14:00 +7°C° 0.3 mm 9 m/S 757 mmHg 63%
    15:00 +8°C° 0.3 mm 9 m/S 757 mmHg 59%
    16:00 +7°C° 0.2 mm 9 m/S 758 mmHg 64%
    17:00 +7°C° 0.2 mm 9 m/S 758 mmHg 70%
    18:00 +6°C° 0.2 mm 9 m/S 759 mmHg 76%
    19:00 +6°C° 0.2 mm 8 m/S 759 mmHg 76%
    20:00 +6°C° 0.2 mm 8 m/S 760 mmHg 77%
    21:00 +6°C° 0.2 mm 8 m/S 760 mmHg 77%
    22:00 +5°C° 0.2 mm 8 m/S 761 mmHg 77%
    23:00 +5°C° 0.2 mm 8 m/S 762 mmHg 76%

    Morgen, 18 Februar, Dienstag

    Zeit Temperatur Niederschläge Wind Luftdruck Luftfeuchtigkeit
    00:00 +5°C° 0.2 mm 8 m/S 763 mmHg 76%
    01:00 +5°C° 0 mm 7 m/S 763 mmHg 75%
    02:00 +4°C° 0 mm 7 m/S 763 mmHg 73%
    03:00 +4°C° 0 mm 7 m/S 764 mmHg 72%
    04:00 +3°C° 0 mm 7 m/S 764 mmHg 72%
    05:00 +3°C° 0 mm 7 m/S 765 mmHg 73%
    06:00 +3°C° 0 mm 6 m/S 765 mmHg 73%
    07:00 +3°C° 0 mm 7 m/S 766 mmHg 72%
    08:00 +4°C° 0 mm 7 m/S 766 mmHg 70%
    09:00 +4°C° 0 mm 8 m/S 766 mmHg 69%
    10:00 +5°C° 0.1 mm 8 m/S 766 mmHg 67%
    11:00 +6°C° 0.1 mm 8 m/S 766 mmHg 65%
    12:00 +6°C° 0.1 mm 9 m/S 766 mmHg 64%
    13:00 +7°C° 0.1 mm 8 m/S 765 mmHg 62%
    14:00 +7°C° 0.1 mm 8 m/S 765 mmHg 60%
    15:00 +7°C° 0.1 mm 8 m/S 765 mmHg 59%
    16:00 +7°C° 0 mm 8 m/S 764 mmHg 63%
    17:00 +6°C° 0 mm 8 m/S 764 mmHg 67%
    18:00 +6°C° 0 mm 8 m/S 763 mmHg 71%
    19:00 +5°C° 0.4 mm 9 m/S 763 mmHg 76%
    20:00 +5°C° 0.4 mm 9 m/S 762 mmHg 80%
    21:00 +5°C° 0.4 mm 9 m/S 761 mmHg 85%
    22:00 +5°C° 0.5 mm 9 m/S 761 mmHg 85%
    23:00 +5°C° 0.5 mm 9 m/S 760 mmHg 85%

    übermorgen, 19 Februar, Mittwoch

    Zeit Temperatur Niederschläge Wind Luftdruck Luftfeuchtigkeit
    00:00 +5°C° 0.5 mm 9 m/S 760 mmHg 84%
    01:00 +4°C° 0.4 mm 8 m/S 760 mmHg 80%
    02:00 +4°C° 0.4 mm 8 m/S 760 mmHg 75%
    03:00 +3°C° 0.4 mm 7 m/S 761 mmHg 70%
    04:00 +3°C° 0.1 mm 7 m/S 761 mmHg 71%
    05:00 +2°C° 0.1 mm 7 m/S 762 mmHg 71%
    06:00 +2°C° 0.1 mm 7 m/S 763 mmHg 72%
    07:00 +3°C° 0 mm 7 m/S 763 mmHg 70%
    08:00 +3°C° 0 mm 7 m/S 764 mmHg 68%
    09:00 +3°C° 0 mm 7 m/S 764 mmHg 66%
    10:00 +4°C° 0 mm 7 m/S 764 mmHg 64%
    11:00 +4°C° 0 mm 7 m/S 765 mmHg 63%
    12:00 +5°C° 0 mm 7 m/S 765 mmHg 61%
    13:00 +5°C° 0 mm 7 m/S 765 mmHg 60%
    14:00 +5°C° 0 mm 7 m/S 765 mmHg 59%
    15:00 +5°C° 0 mm 6 m/S 765 mmHg 57%
    16:00 +5°C° 0 mm 6 m/S 765 mmHg 63%
    17:00 +5°C° 0 mm 5 m/S 764 mmHg 69%
    18:00 +5°C° 0 mm 5 m/S 764 mmHg 74%
    19:00 +5°C° 0.1 mm 5 m/S 764 mmHg 78%
    20:00 +4°C° 0.1 mm 6 m/S 763 mmHg 82%
    21:00 +5°C° 0.1 mm 7 m/S 763 mmHg 86%
    22:00 +5°C° 0.1 mm 7 m/S 763 mmHg 85%
    23:00 +5°C° 0.1 mm 7 m/S 762 mmHg 85%

    20 Februar, Donnerstag

    Zeit Temperatur Niederschläge Wind Luftdruck Luftfeuchtigkeit
    00:00 +6°C° 0.1 mm 8 m/S 762 mmHg 85%
    01:00 +6°C° 0 mm 7 m/S 761 mmHg 84%
    02:00 +6°C° 0 mm 7 m/S 761 mmHg 84%
    03:00 +6°C° 0 mm 7 m/S 760 mmHg 83%
    04:00 +6°C° 0 mm 7 m/S 760 mmHg 82%
    05:00 +5°C° 0 mm 7 m/S 760 mmHg 82%
    06:00 +5°C° 0 mm 7 m/S 760 mmHg 81%
    07:00 +6°C° 0 mm 7 m/S 759 mmHg 79%
    08:00 +6°C° 0 mm 7 m/S 759 mmHg 77%
    09:00 +6°C° 0 mm 7 m/S 759 mmHg 75%
    10:00 +7°C° 0 mm 8 m/S 759 mmHg 73%
    11:00 +7°C° 0 mm 8 m/S 759 mmHg 70%
    12:00 +7°C° 0 mm 8 m/S 758 mmHg 68%
    13:00 +8°C° 0 mm 9 m/S 758 mmHg 69%
    14:00 +8°C° 0 mm 9 m/S 757 mmHg 69%
    15:00 +8°C° 0 mm 9 m/S 757 mmHg 70%
    16:00 +8°C° 0.3 mm 9 m/S 757 mmHg 72%
    17:00 +8°C° 0.3 mm 10 m/S 757 mmHg 75%
    18:00 +7°C° 0.3 mm 10 m/S 757 mmHg 78%
    19:00 +7°C° 0.3 mm 9 m/S 758 mmHg 75%
    20:00 +6°C° 0.3 mm 9 m/S 759 mmHg 72%
    21:00 +5°C° 0.3 mm 8 m/S 760 mmHg 68%
    22:00 +4°C° 0 mm 7 m/S 762 mmHg 68%
    23:00 +4°C° 0 mm 7 m/S 763 mmHg 68%

    21 Februar, Freitag

    Zeit Temperatur Niederschläge Wind Luftdruck Luftfeuchtigkeit
    00:00 +3°C° 0 mm 7 m/S 764 mmHg 68%
    01:00 +3°C° 0 mm 7 m/S 765 mmHg 68%
    02:00 +3°C° 0 mm 6 m/S 765 mmHg 67%
    03:00 +2°C° 0 mm 6 m/S 766 mmHg 66%
    04:00 +2°C° 0 mm 6 m/S 767 mmHg 68%
    05:00 +2°C° 0 mm 6 m/S 768 mmHg 70%
    06:00 +2°C° 0 mm 6 m/S 768 mmHg 72%
    13:00 +6°C° 0 mm 7 m/S 771 mmHg 56%
    14:00 +6°C° 0 mm 7 m/S 771 mmHg 56%
    15:00 +8°C° 0 mm 7 m/S 770 mmHg 56%
    16:00 +6°C° 0 mm 7 m/S 770 mmHg 59%
    17:00 +6°C° 0 mm 7 m/S 770 mmHg 62%
    18:00 +5°C° 0 mm 7 m/S 770 mmHg 66%
    19:00 +5°C° 0 mm 7 m/S 770 mmHg 68%
    20:00 +5°C° 0 mm 8 m/S 770 mmHg 71%
    21:00 +4°C° 0 mm 8 m/S 770 mmHg 73%
    22:00 +4°C° 0 mm 8 m/S 770 mmHg 74%
    23:00 +3°C° 0 mm 9 m/S 769 mmHg 74%

    22 Februar, Samstag

    Zeit Temperatur Niederschläge Wind Luftdruck Luftfeuchtigkeit
    00:00 +3°C° 0 mm 9 m/S 769 mmHg 75%
    01:00 +3°C° 0 mm 9 m/S 769 mmHg 75%
    02:00 +3°C° 0 mm 9 m/S 768 mmHg 76%
    03:00 +3°C° 0 mm 9 m/S 768 mmHg 76%
    04:00 +3°C° 0 mm 9 m/S 768 mmHg 77%
    05:00 +3°C° 0 mm 10 m/S 767 mmHg 77%
    06:00 +3°C° 0 mm 10 m/S 767 mmHg 77%
    07:00 +5°C° 0 mm 10 m/S 767 mmHg 78%
    08:00 +5°C° 0 mm 10 m/S 767 mmHg 78%
    09:00 +5°C° 0 mm 10 m/S 767 mmHg 78%
    10:00 +6°C° 0 mm 10 m/S 767 mmHg 78%
    11:00 +7°C° 0 mm 10 m/S 767 mmHg 78%
    12:00 +7°C° 0 mm 10 m/S 767 mmHg 78%
    13:00 +8°C° 0 mm 10 m/S 767 mmHg 79%
    14:00 +8°C° 0 mm 10 m/S 767 mmHg 79%
    15:00 +9°C° 0 mm 10 m/S 767 mmHg 80%
    16:00 +9°C° 0 mm 10 m/S 767 mmHg 80%
    17:00 +9°C° 0 mm 10 m/S 767 mmHg 81%
    18:00 +9°C° 0 mm 10 m/S 767 mmHg 82%
    19:00 +9°C° 0 mm 10 m/S 767 mmHg 83%
    20:00 +9°C° 0 mm 10 m/S 768 mmHg 85%
    21:00 +10°C° 0 mm 9 m/S 768 mmHg 86%
    22:00 +10°C° 0.1 mm 9 m/S 768 mmHg 87%
    23:00 +10°C° 0.1 mm 9 m/S 768 mmHg 88%
    Mehr zeigen